Location: Whelan
(46.7841°N, 117.1166°W)
Time: 18:02:51
(UTC+00:00)

Envisat - Visible Passes

Search period start: 15 June 2024 00:00
Search period end: 25 June 2024 00:00
Orbit: 762 x 764 km, 98.3° (Epoch: 14 June)

Date Brightness Start Highest point End Pass type
(mag) Time Alt. Az. Time Alt. Az. Time Alt. Az.
15 Jun 4.5 10:26:57 10° NNE 10:31:33 33° E 10:36:06 10° SSE visible
16 Jun 5.4 09:50:43 10° NE 09:53:48 16° E 09:56:52 10° SE visible
17 Jun 3.7 10:50:55 10° NNE 10:55:55 54° E 11:00:52 10° S visible
18 Jun 4.8 10:14:04 10° NE 10:18:18 26° E 10:22:30 10° SSE visible
19 Jun 5.6 09:38:32 10° ENE 09:40:29 12° E 09:42:26 10° ESE visible
20 Jun 4.1 10:37:53 10° NNE 10:42:42 42° E 10:47:30 10° SSE visible
21 Jun 5.2 10:01:18 10° NE 10:05:02 20° E 10:08:44 10° SE visible
22 Jun 3.3 11:01:57 10° NNE 11:07:02 69° ESE 11:12:04 10° S visible
23 Jun 4.5 10:24:56 10° NNE 10:29:30 32° E 10:34:01 10° SSE visible
24 Jun 5.4 09:48:45 10° NE 09:51:44 16° E 09:54:43 10° SE visible
